| time (UTC) | temp C | wind direction | speed KPH | gust KPH | rain 1hr cm | rain 24hr cm | rain mn cm | humidity % | barometer mb |
| 20260507221509 | 28 | 227 | 3.2 | 11.3 | 0.00 | 0.00 | 0.00 | 78 | 1016.7 |
| 20260507220008 | 29 | 212 | 3.2 | 9.7 | 0.00 | 0.00 | 0.00 | 79 | 1016.7 |
| 20260507214507 | 30 | 147 | 1.6 | 6.4 | 0.00 | 0.00 | 0.00 | 81 | 1016.6 |
| 20260507213014 | 29 | 139 | 3.2 | 11.3 | 0.00 | 0.00 | 0.00 | 80 | 1016.5 |
| 20260507211505 | 30 | 138 | 3.2 | 11.3 | 0.00 | 0.00 | 0.00 | 80 | 1016.7 |
| 20260507210007 | 29 | 105 | 3.2 | 11.3 | 0.00 | 0.00 | 0.00 | 81 | 1016.6 |
| 20260507204504 | 28 | 132 | 3.2 | 11.3 | 0.00 | 0.00 | 0.00 | 82 | 1016.6 |
| 20260507203000 | 29 | 99 | 1.6 | 8.0 | 0.00 | 0.00 | 0.00 | 80 | 1016.6 |
| 20260507201502 | 29 | 221 | 3.2 | 12.9 | 0.00 | 0.00 | 0.00 | 82 | 1016.5 |
| 20260507200059 | 29 | 148 | 3.2 | 12.9 | 0.00 | 0.00 | 0.00 | 80 | 1016.7 |
| 20260507194620 | 28 | 109 | 3.2 | 11.3 | 0.00 | 0.00 | 0.00 | 81 | 1016.9 |
| 20260507193029 | 29 | 141 | 3.2 | 9.7 | 0.00 | 0.00 | 0.00 | 80 | 1016.9 |
| 20260507191533 | 30 | 125 | 4.8 | 12.9 | 0.00 | 0.00 | 0.00 | 78 | 1017.2 |
| 20260507190024 | 30 | 150 | 4.8 | 12.9 | 0.00 | 0.00 | 0.00 | 79 | 1017.3 |
| 20260507184532 | 30 | 140 | 4.8 | 11.3 | 0.00 | 0.00 | 0.00 | 78 | 1017.4 |
| 20260507183035 | 30 | 164 | 4.8 | 12.9 | 0.00 | 0.00 | 0.00 | 78 | 1017.7 |
| 20260507181523 | 30 | 109 | 4.8 | 11.3 | 0.00 | 0.00 | 0.00 | 78 | 1017.9 |
| 20260507180029 | 30 | 125 | 4.8 | 14.5 | 0.00 | 0.00 | 0.00 | 79 | 1018.1 |
| 20260507174520 | 30 | 128 | 4.8 | 12.9 | 0.00 | 0.00 | 0.00 | 78 | 1018.3 |
| 20260507173029 | 30 | 121 | 4.8 | 12.9 | 0.00 | 0.00 | 0.00 | 78 | 1018.4 |
| 20260507171532 | 30 | 143 | 6.4 | 12.9 | 0.00 | 0.00 | 0.00 | 78 | 1018.5 |
| 20260507170016 | 30 | 108 | 4.8 | 14.5 | 0.00 | 0.00 | 0.00 | 80 | 1018.6 |
| 20260507164516 | 30 | 112 | 6.4 | 14.5 | 0.00 | 0.00 | 0.00 | 78 | 1018.8 |
| 20260507163015 | 30 | 111 | 4.8 | 14.5 | 0.00 | 0.00 | 0.00 | 78 | 1018.8 |
| 20260507161515 | 30 | 139 | 4.8 | 12.9 | 0.00 | 0.00 | 0.00 | 78 | 1018.9 |
| 20260507160012 | 30 | 173 | 4.8 | 12.9 | 0.00 | 0.00 | 0.00 | 78 | 1019.1 |
| 20260507154511 | 30 | 124 | 4.8 | 11.3 | 0.00 | 0.00 | 0.00 | 78 | 1019.1 |
| 20260507153009 | 30 | 150 | 4.8 | 12.9 | 0.00 | 0.00 | 0.00 | 79 | 1019.0 |
| 20260507151509 | 30 | 149 | 4.8 | 11.3 | 0.00 | 0.00 | 0.00 | 79 | 1019.1 |
| 20260507150040 | 30 | 205 | 3.2 | 11.3 | 0.00 | 0.00 | 0.00 | 80 | 1019.0 |
| 20260507144542 | 29 | 161 | 3.2 | 12.9 | 0.00 | 0.00 | 0.00 | 81 | 1019.1 |
| 20260507143036 | 28 | 141 | 4.8 | 12.9 | 0.00 | 0.00 | 0.00 | 81 | 1019.1 |
| 20260507141532 | 29 | 188 | 3.2 | 11.3 | 0.00 | 0.00 | 0.00 | 81 | 1019.0 |
| 20260507140031 | 29 | 210 | 3.2 | 11.3 | 0.00 | 0.00 | 0.00 | 81 | 1019.0 |
| 20260507134530 | 28 | 164 | 3.2 | 12.9 | 0.00 | 0.00 | 0.00 | 82 | 1019.0 |
| 20260507133105 | 28 | 143 | 4.8 | 14.5 | 0.00 | 0.00 | 0.00 | 83 | 1019.0 |
| 20260507131555 | 28 | 190 | 4.8 | 9.7 | 0.00 | 0.00 | 0.00 | 84 | 1019.0 |
| 20260507130051 | 28 | 178 | 3.2 | 9.7 | 0.00 | 0.00 | 0.00 | 85 | 1018.8 |
| 20260507124548 | 27 | 134 | 6.4 | 14.5 | 0.00 | 0.00 | 0.00 | 86 | 1018.6 |
| 20260507123048 | 27 | 143 | 4.8 | 11.3 | 0.00 | 0.00 | 0.00 | 87 | 1018.4 |
| 20260507121544 | 27 | 139 | 4.8 | 9.7 | 0.00 | 0.00 | 0.00 | 88 | 1018.2 |
| 20260507120044 | 26 | 143 | 4.8 | 12.9 | 0.00 | 0.00 | 0.00 | 88 | 1018.1 |
| 20260507114533 | 26 | 144 | 4.8 | 14.5 | 0.00 | 0.00 | 0.00 | 89 | 1017.7 |
| 20260507113041 | 26 | 197 | 4.8 | 12.9 | 0.00 | 0.00 | 0.00 | 89 | 1017.6 |
| 20260507111527 | 26 | 155 | 4.8 | 11.3 | 0.00 | 0.00 | 0.00 | 89 | 1017.6 |
| 20260507110027 | 25 | 130 | 4.8 | 12.9 | 0.00 | 0.00 | 0.00 | 90 | 1017.4 |
| 20260507104521 | 25 | 155 | 4.8 | 11.3 | 0.00 | 0.00 | 0.00 | 90 | 1017.3 |
| 20260507103021 | 25 | 159 | 4.8 | 11.3 | 0.00 | 0.00 | 0.00 | 90 | 1017.1 |
| 20260507101521 | 25 | 150 | 4.8 | 14.5 | 0.00 | 0.00 | 0.00 | 90 | 1017.0 |
| 20260507100026 | 25 | 140 | 3.2 | 9.7 | 0.00 | 0.00 | 0.00 | 90 | 1017.1 |
| 20260507094516 | 25 | 157 | 3.2 | 11.3 | 0.00 | 0.00 | 0.00 | 90 | 1017.0 |
| 20260507093016 | 25 | 154 | 4.8 | 11.3 | 0.00 | 0.00 | 0.00 | 90 | 1017.1 |
| 20260507091518 | 25 | 138 | 4.8 | 11.3 | 0.00 | 0.00 | 0.00 | 90 | 1017.1 |
| 20260507090015 | 25 | 172 | 3.2 | 12.9 | 0.00 | 0.00 | 0.00 | 90 | 1017.0 |
| 20260507084513 | 25 | 157 | 3.2 | 11.3 | 0.00 | 0.00 | 0.00 | 91 | 1017.1 |
| 20260507083011 | 25 | 150 | 3.2 | 9.7 | 0.00 | 0.00 | 0.00 | 91 | 1017.0 |
| 20260507081510 | 25 | 142 | 3.2 | 12.9 | 0.00 | 0.00 | 0.00 | 91 | 1016.9 |
| 20260507080010 | 25 | 153 | 1.6 | 11.3 | 0.00 | 0.00 | 0.00 | 91 | 1016.9 |
| 20260507074505 | 25 | 203 | 1.6 | 8.0 | 0.00 | 0.00 | 0.00 | 91 | 1017.1 |
| 20260507073004 | 25 | 144 | 3.2 | 9.7 | 0.00 | 0.00 | 0.00 | 91 | 1017.1 |
| 20260507071601 | 25 | 112 | 4.8 | 9.7 | 0.00 | 0.00 | 0.00 | 91 | 1017.2 |
| 20260507070100 | 25 | 117 | 1.6 | 9.7 | 0.00 | 0.00 | 0.00 | 91 | 1017.2 |
| 20260507064611 | 25 | 137 | 1.6 | 6.4 | 0.00 | 0.00 | 0.00 | 91 | 1017.3 |
| 20260507063108 | 25 | 135 | 1.6 | 9.7 | 0.00 | 0.00 | 0.00 | 91 | 1017.5 |
| 20260507061556 | 25 | 124 | 1.6 | 9.7 | 0.00 | 0.00 | 0.00 | 91 | 1017.6 |
| 20260507060055 | 25 | 110 | 4.8 | 11.3 | 0.00 | 0.00 | 0.00 | 91 | 1017.8 |
| 20260507054553 | 25 | 117 | 4.8 | 9.7 | 0.00 | 0.00 | 0.00 | 90 | 1017.9 |
| 20260507053052 | 25 | 88 | 4.8 | 6.4 | 0.00 | 0.00 | 0.00 | 91 | 1018.1 |
| 20260507051552 | 25 | 113 | 3.2 | 9.7 | 0.00 | 0.00 | 0.00 | 90 | 1018.3 |
| 20260507050056 | 25 | 92 | 1.6 | 9.7 | 0.00 | 0.00 | 0.00 | 91 | 1018.5 |
| 20260507044523 | 25 | 89 | 3.2 | 9.7 | 0.00 | 0.00 | 0.00 | 91 | 1018.6 |
| 20260507043021 | 25 | 115 | 4.8 | 11.3 | 0.00 | 0.00 | 0.00 | 91 | 1018.6 |
| 20260507041518 | 25 | 121 | 3.2 | 9.7 | 0.00 | 0.00 | 0.00 | 91 | 1018.8 |
| 20260507040017 | 26 | 94 | 3.2 | 6.4 | 0.00 | 0.00 | 0.00 | 91 | 1018.8 |
| 20260507034518 | 26 | 131 | 3.2 | 9.7 | 0.00 | 0.00 | 0.00 | 90 | 1019.0 |
| 20260507033017 | 25 | 99 | 3.2 | 6.4 | 0.00 | 0.00 | 0.00 | 90 | 1018.8 |
| 20260507031514 | 25 | 124 | 1.6 | 6.4 | 0.00 | 0.00 | 0.00 | 90 | 1018.9 |
| 20260507030014 | 25 | 128 | 1.6 | 6.4 | 0.00 | 0.00 | 0.00 | 90 | 1019.0 |
| 20260507024515 | 25 | 131 | 0.0 | 4.8 | 0.00 | 0.00 | 0.00 | 89 | 1018.9 |
| 20260507023013 | 25 | 115 | 1.6 | 6.4 | 0.00 | 0.00 | 0.00 | 89 | 1018.9 |
| 20260507021543 | 26 | 128 | 1.6 | 6.4 | 0.00 | 0.00 | 0.00 | 89 | 1019.0 |
| 20260507020042 | 26 | 148 | 1.6 | 6.4 | 0.00 | 0.00 | 0.00 | 88 | 1019.0 |
| 20260507014539 | 26 | 97 | 3.2 | 6.4 | 0.00 | 0.00 | 0.00 | 88 | 1019.0 |
| 20260507013040 | 26 | 103 | 1.6 | 4.8 | 0.00 | 0.00 | 0.00 | 88 | 1018.9 |
| 20260507011540 | 26 | 100 | 3.2 | 6.4 | 0.00 | 0.00 | 0.00 | 88 | 1018.7 |
| 20260507010040 | 26 | 125 | 0.0 | 4.8 | 0.00 | 0.00 | 0.00 | 88 | 1018.7 |
| 20260507004534 | 26 | 141 | 0.0 | 4.8 | 0.00 | 0.00 | 0.00 | 88 | 1018.6 |
| 20260507003033 | 26 | 131 | 0.0 | 4.8 | 0.00 | 0.00 | 0.00 | 88 | 1018.4 |
| 20260507001549 | 26 | 120 | 3.2 | 6.4 | 0.00 | 0.00 | 0.00 | 87 | 1018.2 |
| 20260507000033 | 26 | 107 | 3.2 | 6.4 | 0.00 | 0.00 | 0.00 | 86 | 1018.2 |
| 20260506234544 | 26 | 113 | 3.2 | 6.4 | 0.00 | 0.00 | 0.00 | 86 | 1018.1 |
| 20260506233029 | 26 | 108 | 1.6 | 6.4 | 0.00 | 0.00 | 0.00 | 86 | 1018.1 |
| 20260506231534 | 27 | 109 | 1.6 | 6.4 | 0.00 | 0.00 | 0.00 | 85 | 1018.2 |
| 20260506230028 | 27 | 100 | 3.2 | 6.4 | 0.00 | 0.00 | 0.00 | 85 | 1018.1 |
| 20260506224529 | 27 | 101 | 3.2 | 9.7 | 0.00 | 0.00 | 0.00 | 85 | 1017.9 |
| 20260506223025 | 27 | 113 | 3.2 | 6.4 | 0.00 | 0.00 | 0.00 | 84 | 1017.7 |